Mountain Home, AR

8:57 PM CDT on October 13, 2019 (GMT -0500)
Baxter County Regional

Weather History for KBPK - August, 2019

Change the Weather History Date:

Monday, August 26, 2019

  Actual Average (KFLP) Record (KFLP)
Temperature  
Mean Temperature 78 °F -  
Max Temperature 89 °F 88 °F 98 °F (1998)
Min Temperature 70 °F 65 °F 55 °F (2010)
Cooling Degree Days 13    
Growing Degree Days 28 (Base 50)    
Moisture  
Dew Point 72 °F    
Average Humidity 92    
Maximum Humidity 100    
Minimum Humidity 65    
Precipitation  
Precipitation 0.00 in - - ()
Sea Level Pressure  
Sea Level Pressure 29.80 in    
Wind  
Wind Speed 5 mph (South)    
Max Wind Speed 9 mph    
Max Gust Speed -    
Visibility 7 miles    
Events Fog , Thunderstorm    
Averages and records for this station are not official NWS values.
T = Trace of Precipitation, MM = Missing Value Source: NWS Daily Summary

Daily Weather History Graph

Daily Weather History Graph

Search for Another Location

Airport or City:

Astronomy

Aug. 26, 2019 Rise Set
Actual Time 6:36 AM CDT 7:46 PM CDT
Civil Twilight 6:09 AM CDT 8:13 PM CDT
Nautical Twilight 5:37 AM CDT 8:44 PM CDT
Astronomical Twilight 5:04 AM CDT 9:17 PM CDT
Moon 2:08 AM CDT (8/26) 5:04 PM CDT (8/26)
Length of Visible Light 14h 03m
Length of Day
13h 10m
Waning Crescent, 19% of the Moon is Illuminated
Aug 26
Waning Crescent
Aug 30
New
Sep 5
First Quarter
Sep 13
Full
Sep 21
Last Quarter

Hourly Weather History & Observations

Time (CDT) Temp. Heat Index Dew Point Humidity Pressure Visibility Wind Dir Wind Speed Gust Speed Precip Events Conditions
12:06 AM 72.0 °F - 72.0 °F 100% 29.85 in 10.0 mi South 4.6 mph - N/A   Scattered Clouds
12:35 AM 71.1 °F - 71.1 °F 100% 29.84 in 4.0 mi South 4.6 mph - N/A   Overcast
12:41 AM 71.1 °F - 71.1 °F 100% 29.84 in 1.8 mi South 4.6 mph - N/A   Overcast
12:53 AM 71.1 °F - 71.1 °F 100% 29.82 in 3.0 mi South 5.8 mph - N/A   Overcast
1:10 AM 71.1 °F - 71.1 °F 100% 29.84 in 1.8 mi South 5.8 mph - N/A   Overcast
1:38 AM 71.1 °F - 71.1 °F 100% 29.84 in 2.5 mi South 5.8 mph - N/A   Overcast
1:48 AM 71.6 °F - 71.6 °F 100% 29.84 in 5.0 mi South 4.6 mph - N/A   Overcast
1:53 AM 71.1 °F - 71.1 °F 100% 29.81 in 7.0 mi South 5.8 mph - N/A   Overcast
2:26 AM 71.1 °F - 71.1 °F 100% 29.83 in 10.0 mi South 3.5 mph - N/A   Overcast
2:53 AM 71.1 °F - 71.1 °F 100% 29.80 in 10.0 mi South 3.5 mph - N/A   Mostly Cloudy
3:53 AM 71.1 °F - 71.1 °F 100% 29.78 in 9.0 mi SSE 3.5 mph - N/A   Mostly Cloudy
4:02 AM 71.1 °F - 71.1 °F 100% 29.81 in 9.0 mi South 3.5 mph - N/A   Mostly Cloudy
4:16 AM 71.1 °F - 71.1 °F 100% 29.81 in 8.0 mi South 3.5 mph - N/A   Mostly Cloudy
4:32 AM 71.1 °F - 71.1 °F 100% 29.81 in 8.0 mi South 4.6 mph - N/A   Mostly Cloudy
4:53 AM 71.1 °F - 71.1 °F 100% 29.78 in 4.0 mi South 4.6 mph - N/A   Overcast
5:53 AM 70.0 °F - 70.0 °F 100% 29.77 in 7.0 mi Calm Calm - N/A   Overcast
6:35 AM 70.0 °F - 70.0 °F 100% 29.81 in 1.5 mi SSE 3.5 mph - N/A   Overcast
6:45 AM 70.0 °F - 70.0 °F 100% 29.81 in 0.5 mi South 3.5 mph - N/A Fog Fog
6:53 AM 70.0 °F - 70.0 °F 100% 29.79 in 0.2 mi SSE 3.5 mph - N/A Fog Fog
7:14 AM 71.1 °F - 71.1 °F 100% 29.81 in 0.8 mi SE 3.5 mph - N/A   Mist
7:21 AM 71.1 °F - 71.1 °F 100% 29.81 in 2.0 mi Calm Calm - N/A   Overcast
7:30 AM 71.1 °F - 71.1 °F 100% 29.81 in 4.0 mi SSE 3.5 mph - N/A   Overcast
7:53 AM 71.1 °F - 71.1 °F 100% 29.79 in 7.0 mi South 3.5 mph - N/A   Overcast
8:28 AM 73.0 °F - 73.0 °F 100% 29.81 in 10.0 mi South 4.6 mph - N/A   Mostly Cloudy
8:45 AM 73.9 °F - 73.0 °F 97% 29.82 in 10.0 mi South 4.6 mph - N/A   Mostly Cloudy
8:53 AM 75.0 °F - 73.0 °F 94% 29.79 in 10.0 mi SSE 5.8 mph - N/A   Mostly Cloudy
9:53 AM 77.0 °F - 73.0 °F 88% 29.81 in 10.0 mi South 4.6 mph - N/A   Overcast
10:16 AM 78.1 °F - 73.0 °F 84% 29.84 in 10.0 mi SW 4.6 mph - N/A   Overcast
10:53 AM 81.0 °F 86.2 °F 73.9 °F 79% 29.80 in 10.0 mi South 8.1 mph - N/A   Mostly Cloudy
11:53 AM 84.9 °F 92.1 °F 73.9 °F 69% 29.80 in 10.0 mi Variable 5.8 mph - N/A   Scattered Clouds
12:53 PM 86.0 °F 93.8 °F 73.9 °F 67% 29.77 in 10.0 mi South 9.2 mph - N/A   Partly Cloudy
1:53 PM 86.0 °F 93.8 °F 73.9 °F 67% 29.79 in 10.0 mi South 5.8 mph - N/A   Scattered Clouds
2:53 PM 86.0 °F 93.0 °F 73.0 °F 65% 29.79 in 10.0 mi WSW 6.9 mph - N/A   Scattered Clouds
3:53 PM 86.0 °F 93.0 °F 73.0 °F 65% 29.78 in 10.0 mi South 4.6 mph - N/A   Clear
4:53 PM 82.9 °F 90.2 °F 75.0 °F 77% 29.75 in 10.0 mi South 6.9 mph - N/A   Clear
5:53 PM 82.0 °F 87.9 °F 73.9 °F 76% 29.73 in 10.0 mi South 8.1 mph - N/A   Clear
6:53 PM 80.1 °F 85.1 °F 75.0 °F 85% 29.72 in 10.0 mi SSW 6.9 mph - N/A   Clear
7:53 PM 80.1 °F 85.1 °F 75.0 °F 85% 29.73 in 10.0 mi South 6.9 mph - N/A   Clear
8:53 PM 79.0 °F - 75.0 °F 88% 29.77 in 10.0 mi SE 3.5 mph - N/A   Clear
9:53 PM 78.1 °F - 75.0 °F 90% 29.76 in 10.0 mi South 5.8 mph - N/A   Clear
10:53 PM 78.1 °F - 75.0 °F 90% 29.78 in 10.0 mi South 5.8 mph - N/A   Partly Cloudy
11:44 PM 78.1 °F - 75.9 °F 93% 29.84 in 10.0 mi SSW 5.8 mph - N/A Thunderstorm Mostly Cloudy
11:53 PM 78.1 °F - 75.9 °F 93% 29.81 in 10.0 mi South 6.9 mph - N/A Thunderstorm Thunderstorm